When you browse on this site, cookies collect data to enhance your experience and personalize the content and advertising you see.
Visit our Privacy Policy to learn more. By continuing to use the site, you agree to this use of cookies and data.
  • En España
  • Lista de países
  • Para 7 días
  • Temperatura del agua
  • Mapa Satelital
  • El tiempo en el mapa
  • Informadores
  • user-avatar
    Iniciar sesión

    Tiempo cada hora Shkoder

    Hoy, 17 Enero, Jueves

    Tiempo Temperatura Precipitaciones Viento Presión Humedad
    00:00 +2°C° 0 mm 1 mps 744 mmHg 79%
    01:00 +1°C° 0 mm 2 mps 743 mmHg 80%
    02:00 +1°C° 0 mm 2 mps 743 mmHg 80%
    03:00 -1°C° 0 mm 2 mps 743 mmHg 81%
    04:00 -1°C° 0 mm 2 mps 743 mmHg 81%
    05:00 +1°C° 0 mm 2 mps 743 mmHg 81%
    06:00 +1°C° 0 mm 2 mps 743 mmHg 81%
    07:00 -1°C° 0 mm 2 mps 743 mmHg 81%
    08:00 +2°C° 0 mm 2 mps 743 mmHg 82%
    09:00 +5°C° 0 mm 1 mps 743 mmHg 83%
    10:00 +6°C° 0 mm 1 mps 743 mmHg 83%
    11:00 +7°C° 0 mm 1 mps 742 mmHg 82%
    12:00 +8°C° 0 mm 1 mps 742 mmHg 80%
    13:00 +9°C° 0 mm 1 mps 742 mmHg 79%
    14:00 +8°C° 0 mm 1 mps 742 mmHg 80%
    15:00 +7°C° 0 mm 1 mps 742 mmHg 80%
    16:00 +6°C° 0 mm 1 mps 741 mmHg 81%
    17:00 +6°C° 0 mm 1 mps 741 mmHg 80%
    18:00 +5°C° 0 mm 1 mps 741 mmHg 80%
    19:00 +3°C° 0 mm 2 mps 741 mmHg 80%
    20:00 +3°C° 0 mm 2 mps 741 mmHg 79%
    21:00 +3°C° 0 mm 2 mps 741 mmHg 78%
    22:00 +3°C° 0 mm 2 mps 741 mmHg 77%
    23:00 +4°C° 0 mm 2 mps 741 mmHg 78%

    Mañana, 18 Enero, Viernes

    Tiempo Temperatura Precipitaciones Viento Presión Humedad
    00:00 +4°C° 0 mm 2 mps 741 mmHg 79%
    01:00 +5°C° 0 mm 2 mps 741 mmHg 80%
    02:00 +5°C° 0 mm 2 mps 741 mmHg 82%
    03:00 +6°C° 0 mm 1 mps 740 mmHg 84%
    04:00 +7°C° 0 mm 1 mps 740 mmHg 85%
    05:00 +7°C° 0.1 mm 1 mps 740 mmHg 86%
    06:00 +7°C° 0.1 mm 1 mps 739 mmHg 87%
    07:00 +7°C° 0.1 mm 1 mps 739 mmHg 88%
    08:00 +7°C° 0.1 mm 1 mps 739 mmHg 88%
    09:00 +8°C° 0.1 mm 1 mps 739 mmHg 89%
    10:00 +8°C° 0.1 mm 1 mps 739 mmHg 89%
    11:00 +8°C° 0.1 mm 1 mps 739 mmHg 89%
    12:00 +8°C° 0.1 mm 1 mps 738 mmHg 89%
    13:00 +9°C° 0.1 mm 1 mps 738 mmHg 88%
    14:00 +8°C° 0.2 mm 1 mps 738 mmHg 88%
    15:00 +8°C° 0.2 mm 1 mps 738 mmHg 88%
    16:00 +8°C° 0.2 mm 1 mps 738 mmHg 89%
    17:00 +8°C° 0.5 mm 1 mps 738 mmHg 89%
    18:00 +8°C° 0.5 mm 1 mps 738 mmHg 90%
    19:00 +7°C° 0.5 mm 1 mps 738 mmHg 90%
    20:00 +7°C° 0.8 mm 1 mps 738 mmHg 90%
    21:00 +7°C° 0.8 mm 1 mps 739 mmHg 91%
    22:00 +7°C° 0.8 mm 1 mps 739 mmHg 91%
    23:00 +8°C° 0.8 mm 1 mps 739 mmHg 92%

    Pasado mañana, 19 Enero, Sábado

    Tiempo Temperatura Precipitaciones Viento Presión Humedad
    00:00 +8°C° 0.8 mm 1 mps 739 mmHg 92%
    01:00 +8°C° 0.8 mm 1 mps 739 mmHg 93%
    02:00 +8°C° 0.8 mm 1 mps 739 mmHg 93%
    03:00 +8°C° 0.8 mm 1 mps 739 mmHg 93%
    04:00 +8°C° 0.8 mm 1 mps 738 mmHg 93%
    05:00 +8°C° 0.7 mm 1 mps 739 mmHg 92%
    06:00 +8°C° 0.7 mm 1 mps 739 mmHg 91%
    07:00 +8°C° 0.7 mm 1 mps 739 mmHg 90%
    08:00 +8°C° 0.3 mm 1 mps 739 mmHg 88%
    09:00 +8°C° 0.3 mm 2 mps 739 mmHg 87%
    10:00 +8°C° 0.3 mm 2 mps 739 mmHg 85%
    11:00 +10°C° 0 mm 1 mps 739 mmHg 81%
    12:00 +11°C° 0 mm 1 mps 738 mmHg 77%
    13:00 +12°C° 0 mm 1 mps 738 mmHg 74%
    14:00 +11°C° 0 mm 1 mps 738 mmHg 76%
    15:00 +10°C° 0 mm 1 mps 738 mmHg 78%
    16:00 +10°C° 0 mm 1 mps 738 mmHg 81%
    17:00 +9°C° 0.1 mm 1 mps 738 mmHg 82%
    18:00 +8°C° 0.1 mm 1 mps 738 mmHg 83%
    19:00 +8°C° 0.1 mm 1 mps 738 mmHg 85%
    20:00 +8°C° 0.2 mm 1 mps 738 mmHg 84%
    21:00 +7°C° 0.2 mm 1 mps 738 mmHg 84%
    22:00 +6°C° 0.2 mm 2 mps 738 mmHg 83%
    23:00 +6°C° 0.4 mm 2 mps 738 mmHg 83%

    20 Enero, Domingo

    Tiempo Temperatura Precipitaciones Viento Presión Humedad
    00:00 +6°C° 0.4 mm 2 mps 738 mmHg 82%
    01:00 +6°C° 0.4 mm 2 mps 738 mmHg 81%
    02:00 +7°C° 0.5 mm 1 mps 738 mmHg 82%
    03:00 +7°C° 0.5 mm 1 mps 737 mmHg 83%
    04:00 +7°C° 0.5 mm 1 mps 737 mmHg 84%
    05:00 +7°C° 0.5 mm 1 mps 737 mmHg 86%
    06:00 +7°C° 0.5 mm 1 mps 738 mmHg 88%
    07:00 +6°C° 0.5 mm 2 mps 738 mmHg 90%
    08:00 +7°C° 0.5 mm 2 mps 738 mmHg 89%
    09:00 +8°C° 0.5 mm 2 mps 738 mmHg 89%
    10:00 +8°C° 0.5 mm 2 mps 738 mmHg 88%
    11:00 +9°C° 0.2 mm 2 mps 738 mmHg 83%
    12:00 +9°C° 0.2 mm 2 mps 738 mmHg 77%
    13:00 +10°C° 0.2 mm 2 mps 738 mmHg 72%
    14:00 +9°C° 0.1 mm 2 mps 738 mmHg 75%
    15:00 +10°C° 0.1 mm 1 mps 738 mmHg 77%
    16:00 +9°C° 0.1 mm 1 mps 738 mmHg 80%
    17:00 +8°C° 0 mm 1 mps 738 mmHg 83%
    18:00 +7°C° 0 mm 1 mps 739 mmHg 85%
    19:00 +7°C° 0 mm 1 mps 739 mmHg 88%
    20:00 +6°C° 0 mm 1 mps 739 mmHg 87%
    21:00 +6°C° 0 mm 1 mps 739 mmHg 87%
    22:00 +6°C° 0 mm 1 mps 740 mmHg 87%
    23:00 +6°C° 0 mm 1 mps 740 mmHg 85%

    21 Enero, Lunes

    Tiempo Temperatura Precipitaciones Viento Presión Humedad
    00:00 +4°C° 0 mm 2 mps 740 mmHg 84%
    01:00 +4°C° 0 mm 2 mps 740 mmHg 82%
    02:00 +4°C° 0 mm 2 mps 740 mmHg 81%
    03:00 +4°C° 0 mm 2 mps 740 mmHg 80%
    04:00 +4°C° 0 mm 2 mps 739 mmHg 79%
    05:00 +4°C° 0.2 mm 2 mps 740 mmHg 79%
    06:00 +5°C° 0.2 mm 2 mps 740 mmHg 79%
    07:00 +5°C° 0.2 mm 2 mps 740 mmHg 79%
    08:00 +6°C° 0.3 mm 2 mps 740 mmHg 78%
    09:00 +6°C° 0.3 mm 2 mps 740 mmHg 77%
    10:00 +7°C° 0.3 mm 2 mps 740 mmHg 76%
    11:00 +7°C° 0.6 mm 2 mps 740 mmHg 77%
    12:00 +7°C° 0.6 mm 2 mps 739 mmHg 78%
    13:00 +7°C° 0.6 mm 2 mps 739 mmHg 78%
    14:00 +7°C° 0.5 mm 2 mps 739 mmHg 79%
    15:00 +7°C° 0.5 mm 3 mps 738 mmHg 79%
    16:00 +5°C° 0.5 mm 3 mps 738 mmHg 80%
    17:00 +5°C° 0.3 mm 3 mps 738 mmHg 80%
    18:00 +4°C° 0.3 mm 3 mps 738 mmHg 80%
    19:00 +4°C° 0.3 mm 3 mps 738 mmHg 81%
    20:00 +4°C° 0.6 mm 3 mps 738 mmHg 81%
    21:00 +4°C° 0.6 mm 3 mps 738 mmHg 82%
    22:00 +4°C° 0.6 mm 3 mps 737 mmHg 83%
    23:00 +4°C° 1.2 mm 3 mps 737 mmHg 84%

    22 Enero, Martes

    Tiempo Temperatura Precipitaciones Viento Presión Humedad
    00:00 +4°C° 1.2 mm 3 mps 736 mmHg 85%
    01:00 +3°C° 1.2 mm 3 mps 735 mmHg 86%
    02:00 +3°C° 1.9 mm 3 mps 735 mmHg 87%
    03:00 +3°C° 1.9 mm 3 mps 734 mmHg 88%
    04:00 +3°C° 1.9 mm 3 mps 733 mmHg 89%
    05:00 +3°C° 4 mm 3 mps 733 mmHg 90%
    06:00 +4°C° 4 mm 2 mps 733 mmHg 91%
    07:00 +4°C° 4 mm 2 mps 733 mmHg 92%
    08:00 +5°C° 1.7 mm 2 mps 732 mmHg 91%
    09:00 +5°C° 1.7 mm 2 mps 732 mmHg 91%
    10:00 +5°C° 1.7 mm 2 mps 732 mmHg 90%
    11:00 +6°C° 0.5 mm 2 mps 732 mmHg 90%
    12:00 +6°C° 0.5 mm 2 mps 732 mmHg 90%
    13:00 +6°C° 0.5 mm 2 mps 731 mmHg 89%
    14:00 +7°C° 0.9 mm 3 mps 731 mmHg 90%
    15:00 +7°C° 0.9 mm 3 mps 731 mmHg 90%
    16:00 +7°C° 0.9 mm 4 mps 731 mmHg 90%
    17:00 +6°C° 1.6 mm 4 mps 731 mmHg 92%
    18:00 +6°C° 1.6 mm 4 mps 731 mmHg 93%
    19:00 +7°C° 1.6 mm 3 mps 731 mmHg 95%
    20:00 +7°C° 1.2 mm 3 mps 731 mmHg 95%
    21:00 +7°C° 1.2 mm 2 mps 731 mmHg 95%
    22:00 +6°C° 1.2 mm 2 mps 731 mmHg 96%
    23:00 +6°C° 0.7 mm 2 mps 731 mmHg 96%
    Mostrar más